Regional Weather Roundup
Issued by NWS

Home | Current Version | Previous Version | Graphics & Text | Print | Product List | Glossary On
Versions: 1 2 3 4 5 6 7 8 9 10 11 12 13 14 15 16 17 18 19 20 21 22 23 24 25 26 27 28 29 30 31 32 33 34 35 36 37 38 39 40 41 42 43 44 45 46 47 48 49 50
572
ASUS44 KJAN 311103
RWRMS

MISSISSIPPI HOURLY WEATHER ROUNDUP
NATIONAL WEATHER SERVICE JACKSON MS
600 AM CDT TUE MAR 31 2015

NOTE: "FAIR: INDICATES FEW OR NO CLOUDS BELOW 12,000 FEET WITH NO
SIGNIFICANT WEATHER AND/OR OBSTRUCTIONS TO VISIBILITY.

MSZ001>002-007>008-010>013-018>021-025>028-034>036-311200-
NORTHWEST MISSISSIPPI

CITY           SKY/WX    TMP DP  RH WIND       PRES   REMARKS
CLARKSDALE     CLOUDY    57  55  94 S3        30.03R
CLEVELAND      CLOUDY    59  57  94 S3        30.01R
GREENWOOD      MOCLDY    60  55  83 S6        30.02F
GREENVILLE     NOT AVBL
OLIVE BRANCH   MOCLDY    54  52  94 S7        30.01S
OXFORD         FAIR      54  45  71 S5        30.04S
TUNICA         PTSUNNY   54  50  87 S7        30.02S
$$

MSZ003>006-009-014>017-022>024-029>033-037>039-311200-
NORTHEAST MISSISSIPPI

CITY           SKY/WX    TMP DP  RH WIND       PRES   REMARKS
COLUMBUS AFB   CLEAR     49  48  99 S1        30.04R
CORINTH        FAIR      46  45  93 CALM      30.02S
GOLDN TRIANGLE MOCLDY    55  52  88 CALM      30.04S
STARKVILLE     FAIR      50  50 100 CALM      30.05R FOG
TUPELO         PTCLDY    51  47  86 CALM      30.03S
$$

MSZ040-058-311200-
CENTRAL MISSISSIPPI

CITY           SKY/WX    TMP DP  RH WIND       PRES   REMARKS
JACKSON INTL   CLEAR     59  56  89 S5        30.06S
JACKSON HAWKNS CLEAR     61  57  87 SW6       30.06S
MERIDIAN KEY   CLEAR     54  53  97 S3        30.07R
MERIDIAN NAS   NOT AVBL
RAYMOND        FAIR      59  55  88 MISG      30.06R
VICKSBURG      CLEAR     59  57  93 S3        30.06R
$$

MSZ059>079-311200-
SOUTH MISSISSIPPI

CITY           SKY/WX    TMP DP  RH WIND       PRES   REMARKS
BROOKHAVEN       N/A     57  57 100 CALM      30.09S
HATTIESBURG    CLEAR     62  59  90 SW3       30.09R
MCCOMB         FOG       60  60 100 SW3       30.09R VSB 1/4
NATCHEZ        CLOUDY    63  59  88 S6        30.08R
PINE BELT      CLEAR     55  52  88 CALM      30.09S
$$

MSZ080>082-311200-
COASTAL MISSISSIPPI

CITY           SKY/WX    TMP DP  RH WIND       PRES   REMARKS
BILOXI         CLEAR     65  63  94 W5        30.09S
PASCAGOULA     CLEAR     59  58  96 CALM      30.10R
GULFPORT       CLEAR     62  60  93 W3        30.09S
$$



USA.gov is the U.S. government's official web portal to all federal, state and local government web resources and services.